Time,TemperatureF,DewpointF,PressureIn,WindDirection,WindDirectionDegrees,WindSpeedMPH,WindSpeedGustMPH,Humidity,HourlyPrecipIn,Conditions,Clouds,dailyrainin,SoftwareType,DateUTC
2013-01-13 00:00:00,53.6,43.7,30.04,West,272,5.0,11.0,69,0.00,,,0.00,VWS V14.01,2013-01-12 23:00:00,
2013-01-13 00:02:00,53.5,43.6,30.04,West,262,4.0,11.0,69,0.00,,,0.04,VWS V14.01,2013-01-12 23:02:00,
2013-01-13 00:07:00,53.5,43.6,30.03,WSW,254,2.0,7.0,69,0.00,,,0.00,VWS V14.01,2013-01-12 23:07:00,
2013-01-13 00:10:00,53.4,43.9,30.04,WSW,246,2.0,7.0,70,0.00,,,0.00,VWS V14.01,2013-01-12 23:10:00,
2013-01-13 00:12:00,53.4,43.9,30.04,WSW,246,3.0,7.0,70,0.00,,,0.00,VWS V14.01,2013-01-12 23:12:00,
2013-01-13 00:17:00,53.5,44.0,30.03,West,262,5.0,8.0,70,0.00,,,0.00,VWS V14.01,2013-01-12 23:17:00,
2013-01-13 00:20:00,53.6,44.1,30.03,WSW,250,1.0,9.0,70,0.00,,,0.00,VWS V14.01,2013-01-12 23:20:00,
2013-01-13 00:22:00,53.6,44.1,30.03,West,266,3.0,9.0,70,0.00,,,0.00,VWS V14.01,2013-01-12 23:22:00,
2013-01-13 00:27:00,53.8,44.3,30.03,WSW,244,3.0,8.0,70,0.00,,,0.00,VWS V14.01,2013-01-12 23:27:00,
2013-01-13 00:30:00,53.7,43.8,30.03,West,262,9.0,9.0,69,0.00,,,0.00,VWS V14.01,2013-01-12 23:30:00,
2013-01-13 00:32:00,53.7,44.2,30.03,WSW,249,3.0,9.0,70,0.00,,,0.00,VWS V14.01,2013-01-12 23:32:00,
2013-01-13 00:37:00,53.6,43.7,30.03,West,262,3.0,9.0,69,0.00,,,0.00,VWS V14.01,2013-01-12 23:37:00,
2013-01-13 00:40:00,53.7,43.8,30.03,WSW,255,8.0,9.0,69,0.00,,,0.00,VWS V14.01,2013-01-12 23:40:00,
2013-01-13 00:42:00,53.6,43.7,30.03,WSW,249,3.0,9.0,69,0.00,,,0.00,VWS V14.01,2013-01-12 23:42:00,
2013-01-13 00:47:00,53.9,44.0,30.03,WSW,257,3.0,8.0,69,0.00,,,0.00,VWS V14.01,2013-01-12 23:47:00,
2013-01-13 00:50:00,54.0,44.1,30.03,SW,233,5.0,8.0,69,0.00,,,0.00,VWS V14.01,2013-01-12 23:50:00,
2013-01-13 00:52:00,54.0,44.1,30.03,WSW,258,4.0,8.0,69,0.00,,,0.00,VWS V14.01,2013-01-12 23:52:00,
2013-01-13 00:57:00,54.3,43.6,30.03,WSW,241,5.0,11.0,67,0.00,,,0.00,VWS V14.01,2013-01-12 23:57:00,
2013-01-13 01:00:00,54.5,43.0,30.03,SW,223,10.0,15.0,65,0.00,,,0.00,VWS V14.01,2013-01-13 00:00:00,
2013-01-13 01:02:00,54.6,43.1,30.03,WSW,246,6.0,14.0,65,0.00,,,0.00,VWS V14.01,2013-01-13 00:02:00,
2013-01-13 01:08:00,54.7,42.8,30.02,WSW,240,6.0,12.0,64,0.00,,,0.00,VWS V14.01,2013-01-13 00:08:00,
2013-01-13 01:10:00,54.6,42.7,30.03,SSW,213,8.0,13.0,64,0.00,,,0.00,VWS V14.01,2013-01-13 00:10:00,
2013-01-13 01:13:00,54.5,43.0,30.03,SW,225,13.0,13.0,65,0.00,,,0.00,VWS V14.01,2013-01-13 00:13:00,
2013-01-13 01:18:00,54.5,42.6,30.02,SW,221,5.0,11.0,64,0.00,,,0.00,VWS V14.01,2013-01-13 00:18:00,
2013-01-13 01:20:00,54.6,42.7,30.03,SSW,211,7.0,11.0,64,0.00,,,0.00,VWS V14.01,2013-01-13 00:20:00,
2013-01-13 01:23:00,54.6,42.7,30.03,SSW,195,1.0,11.0,64,0.00,,,0.00,VWS V14.01,2013-01-13 00:23:00,
2013-01-13 01:28:00,54.6,42.7,30.03,WSW,250,6.0,11.0,64,0.00,,,0.00,VWS V14.01,2013-01-13 00:28:00,
2013-01-13 01:30:00,54.7,42.0,30.03,SW,221,5.0,11.0,62,0.00,,,0.00,VWS V14.01,2013-01-13 00:30:00,
2013-01-13 01:33:00,54.7,42.0,30.03,SSW,213,4.0,11.0,62,0.00,,,0.00,VWS V14.01,2013-01-13 00:33:00,
2013-01-13 01:38:00,54.7,42.0,30.03,SW,217,9.0,11.0,62,0.00,,,0.00,VWS V14.01,2013-01-13 00:38:00,
2013-01-13 01:40:00,54.7,42.0,30.02,SW,227,5.0,12.0,62,0.00,,,0.00,VWS V14.01,2013-01-13 00:40:00,
2013-01-13 01:43:00,54.8,42.0,30.02,WSW,242,5.0,12.0,62,0.00,,,0.00,VWS V14.01,2013-01-13 00:43:00,
2013-01-13 01:48:00,54.7,42.0,30.02,WSW,248,4.0,11.0,62,0.00,,,0.00,VWS V14.01,2013-01-13 00:48:00,
2013-01-13 01:50:00,54.7,42.4,30.03,WSW,242,4.0,12.0,63,0.00,,,0.00,VWS V14.01,2013-01-13 00:50:00,
2013-01-13 01:53:00,54.7,42.4,30.03,WSW,242,2.0,12.0,63,0.00,,,0.00,VWS V14.01,2013-01-13 00:53:00,
2013-01-13 01:58:00,54.7,42.0,30.02,SW,219,5.0,11.0,62,0.00,,,0.00,VWS V14.01,2013-01-13 00:58:00,
2013-01-13 02:00:00,54.8,41.6,30.02,SW,218,5.0,13.0,61,0.00,,,0.00,VWS V14.01,2013-01-13 01:00:00,
2013-01-13 02:03:00,54.8,41.6,30.02,SW,217,3.0,13.0,61,0.00,,,0.00,VWS V14.01,2013-01-13 01:03:00,
2013-01-13 02:08:00,54.8,41.6,30.02,SSW,213,6.0,10.0,61,0.00,,,0.00,VWS V14.01,2013-01-13 01:08:00,
2013-01-13 02:10:00,54.7,41.5,30.02,SSW,213,7.0,12.0,61,0.00,,,0.00,VWS V14.01,2013-01-13 01:10:00,
2013-01-13 02:13:00,54.8,41.6,30.02,SSW,202,12.0,12.0,61,0.00,,,0.00,VWS V14.01,2013-01-13 01:13:00,
2013-01-13 02:18:00,54.9,42.1,30.02,WSW,242,4.0,10.0,62,0.00,,,0.00,VWS V14.01,2013-01-13 01:18:00,
2013-01-13 02:20:00,54.8,42.5,30.02,WSW,258,8.0,10.0,63,0.00,,,0.00,VWS V14.01,2013-01-13 01:20:00,
2013-01-13 02:23:00,54.8,42.5,30.02,SW,219,5.0,10.0,63,0.00,,,0.00,VWS V14.01,2013-01-13 01:23:00,
2013-01-13 02:28:00,54.8,42.5,30.02,SW,215,4.0,11.0,63,0.00,,,0.00,VWS V14.01,2013-01-13 01:28:00,
2013-01-13 02:30:00,54.9,42.1,30.02,SW,230,5.0,11.0,62,0.00,,,0.00,VWS V14.01,2013-01-13 01:30:00,
2013-01-13 02:33:00,54.9,42.6,30.02,SSW,198,7.0,11.0,63,0.00,,,0.00,VWS V14.01,2013-01-13 01:33:00,
2013-01-13 02:38:00,54.9,42.6,30.01,WSW,248,6.0,9.0,63,0.00,,,0.00,VWS V14.01,2013-01-13 01:38:00,
2013-01-13 02:40:00,54.8,43.3,30.01,SW,220,5.0,11.0,65,0.00,,,0.00,VWS V14.01,2013-01-13 01:40:00,
2013-01-13 02:43:00,54.8,43.3,30.01,SW,221,5.0,11.0,65,0.00,,,0.00,VWS V14.01,2013-01-13 01:43:00,
2013-01-13 02:48:00,54.9,43.8,30.02,WSW,239,9.0,16.0,66,0.00,,,0.00,VWS V14.01,2013-01-13 01:48:00,
2013-01-13 02:50:00,54.9,43.8,30.01,SSW,209,6.0,16.0,66,0.00,,,0.00,VWS V14.01,2013-01-13 01:50:00,
2013-01-13 02:53:00,54.9,43.8,30.01,SSW,201,7.0,16.0,66,0.00,,,0.00,VWS V14.01,2013-01-13 01:53:00,
2013-01-13 02:58:00,54.8,44.1,30.01,WSW,241,8.0,15.0,67,0.00,,,0.00,VWS V14.01,2013-01-13 01:58:00,
2013-01-13 03:00:00,54.7,44.0,30.01,SW,225,10.0,15.0,67,0.00,,,0.00,VWS V14.01,2013-01-13 02:00:00,
2013-01-13 03:03:00,54.7,44.0,30.01,WSW,238,9.0,15.0,67,0.00,,,0.00,VWS V14.01,2013-01-13 02:03:00,
2013-01-13 03:08:00,54.7,43.6,30.01,SW,225,5.0,11.0,66,0.00,,,0.00,VWS V14.01,2013-01-13 02:08:00,
2013-01-13 03:10:00,54.8,44.1,30.01,SW,219,10.0,15.0,67,0.00,,,0.00,VWS V14.01,2013-01-13 02:10:00,
2013-01-13 03:13:00,54.8,44.1,30.01,SW,221,13.0,15.0,67,0.00,,,0.00,VWS V14.01,2013-01-13 02:13:00,
2013-01-13 03:18:00,54.7,44.4,30.00,SW,236,5.0,14.0,68,0.00,,,0.00,VWS V14.01,2013-01-13 02:18:00,
2013-01-13 03:20:00,54.8,44.1,30.00,SW,222,13.0,14.0,67,0.00,,,0.00,VWS V14.01,2013-01-13 02:20:00,
2013-01-13 03:23:00,54.8,44.1,30.00,SW,222,13.0,14.0,67,0.00,,,0.00,VWS V14.01,2013-01-13 02:23:00,
2013-01-13 03:28:00,54.9,43.8,30.00,WSW,241,13.0,14.0,66,0.00,,,0.00,VWS V14.01,2013-01-13 02:28:00,
2013-01-13 03:30:00,54.9,45.3,30.00,SSW,211,10.0,14.0,70,0.00,,,0.00,VWS V14.01,2013-01-13 02:30:00,
2013-01-13 03:33:00,54.9,45.3,30.00,SSW,211,10.0,14.0,70,0.00,,,0.00,VWS V14.01,2013-01-13 02:33:00,
2013-01-13 03:38:00,55.0,44.3,30.00,SW,221,6.0,15.0,67,0.00,,,0.00,VWS V14.01,2013-01-13 02:38:00,
2013-01-13 03:40:00,55.0,44.3,29.99,SSW,200,11.0,15.0,67,0.00,,,0.00,VWS V14.01,2013-01-13 02:40:00,
2013-01-13 03:43:00,55.0,44.3,29.99,SSW,200,11.0,15.0,67,0.00,,,0.00,VWS V14.01,2013-01-13 02:43:00,
2013-01-13 03:48:00,55.0,44.7,29.99,SSW,202,10.0,14.0,68,0.00,,,0.00,VWS V14.01,2013-01-13 02:48:00,
2013-01-13 03:50:00,55.0,44.7,29.99,SSW,209,13.0,15.0,68,0.00,,,0.00,VWS V14.01,2013-01-13 02:50:00,
2013-01-13 03:53:00,55.0,44.7,29.99,SSW,209,13.0,15.0,68,0.00,,,0.00,VWS V14.01,2013-01-13 02:53:00,
2013-01-13 03:58:00,55.1,45.5,29.99,WSW,240,6.0,18.0,70,0.00,,,0.00,VWS V14.01,2013-01-13 02:58:00,
2013-01-13 04:00:00,54.9,45.3,29.99,SW,232,6.0,18.0,70,0.00,,,0.00,VWS V14.01,2013-01-13 03:00:00,
2013-01-13 04:03:00,54.9,45.3,29.99,SW,227,5.0,18.0,70,0.00,,,0.00,VWS V14.01,2013-01-13 03:03:00,
2013-01-13 04:08:00,54.9,45.3,29.99,SSW,205,8.0,14.0,70,0.00,,,0.00,VWS V14.01,2013-01-13 03:08:00,
2013-01-13 04:10:00,54.9,44.9,29.98,South,173,6.0,14.0,69,0.00,,,0.00,VWS V14.01,2013-01-13 03:10:00,
2013-01-13 04:13:00,54.9,44.9,29.98,South,173,6.0,14.0,69,0.00,,,0.00,VWS V14.01,2013-01-13 03:13:00,
2013-01-13 04:18:00,54.9,44.5,29.98,SW,218,12.0,15.0,68,0.00,,,0.00,VWS V14.01,2013-01-13 03:18:00,
2013-01-13 04:20:00,55.0,44.7,29.98,SSW,207,7.0,15.0,68,0.00,,,0.00,VWS V14.01,2013-01-13 03:20:00,
2013-01-13 04:23:00,55.0,44.7,29.98,SSW,207,7.0,15.0,68,0.00,,,0.00,VWS V14.01,2013-01-13 03:23:00,
2013-01-13 04:28:00,55.0,44.3,29.98,SW,215,8.0,14.0,67,0.00,,,0.00,VWS V14.01,2013-01-13 03:28:00,
2013-01-13 04:30:00,54.9,44.2,29.98,South,180,10.0,14.0,67,0.00,,,0.00,VWS V14.01,2013-01-13 03:30:00,
2013-01-13 04:33:00,54.9,44.2,29.98,SSW,198,8.0,10.0,67,0.00,,,0.00,VWS V14.01,2013-01-13 03:33:00,
2013-01-13 04:38:00,54.9,44.2,29.98,SSW,211,4.0,12.0,67,0.00,,,0.00,VWS V14.01,2013-01-13 03:38:00,
2013-01-13 04:40:00,54.9,44.2,29.98,SSW,204,10.0,12.0,67,0.00,,,0.00,VWS V14.01,2013-01-13 03:40:00,
2013-01-13 04:43:00,54.9,44.2,29.98,SSW,204,10.0,12.0,67,0.00,,,0.00,VWS V14.01,2013-01-13 03:43:00,
2013-01-13 04:48:00,55.0,43.5,29.98,SSW,207,11.0,13.0,65,0.00,,,0.00,VWS V14.01,2013-01-13 03:48:00,
2013-01-13 04:50:00,55.1,43.6,29.97,SW,217,9.0,13.0,65,0.00,,,0.00,VWS V14.01,2013-01-13 03:50:00,
2013-01-13 04:53:00,55.1,43.6,29.97,SW,217,9.0,13.0,65,0.00,,,0.00,VWS V14.01,2013-01-13 03:53:00,
2013-01-13 04:58:00,55.1,43.2,29.97,South,187,8.0,11.0,64,0.00,,,0.00,VWS V14.01,2013-01-13 03:58:00,
2013-01-13 05:00:00,55.0,43.5,29.97,SW,214,10.0,12.0,65,0.00,,,0.00,VWS V14.01,2013-01-13 04:00:00,
2013-01-13 05:03:00,55.1,43.6,29.97,SSW,207,2.0,12.0,65,0.00,,,0.00,VWS V14.01,2013-01-13 04:03:00,
2013-01-13 05:08:00,55.1,43.6,29.97,SSW,212,8.0,12.0,65,0.00,,,0.00,VWS V14.01,2013-01-13 04:08:00,
2013-01-13 05:10:00,55.1,44.0,29.97,South,183,11.0,12.0,66,0.00,,,0.00,VWS V14.01,2013-01-13 04:10:00,
2013-01-13 05:13:00,55.1,44.0,29.97,South,178,6.0,12.0,66,0.00,,,0.00,VWS V14.01,2013-01-13 04:13:00,
2013-01-13 05:18:00,54.9,43.8,29.97,SSE,162,6.0,11.0,66,0.00,,,0.00,VWS V14.01,2013-01-13 04:18:00,
2013-01-13 05:20:00,54.9,44.2,29.97,South,190,7.0,11.0,67,0.00,,,0.00,VWS V14.01,2013-01-13 04:20:00,
2013-01-13 05:23:00,54.8,44.1,29.97,SW,216,8.0,11.0,67,0.00,,,0.00,VWS V14.01,2013-01-13 04:23:00,
2013-01-13 05:28:00,55.0,43.5,29.97,South,187,10.0,10.0,65,0.00,,,0.00,VWS V14.01,2013-01-13 04:28:00,
2013-01-13 05:30:00,55.2,43.7,29.97,SSW,202,6.0,10.0,65,0.00,,,0.00,VWS V14.01,2013-01-13 04:30:00,
2013-01-13 05:33:00,55.2,43.7,29.97,SSW,204,4.0,10.0,65,0.00,,,0.00,VWS V14.01,2013-01-13 04:33:00,
2013-01-13 05:38:00,55.5,43.9,29.97,SSW,205,7.0,16.0,65,0.00,,,0.00,VWS V14.01,2013-01-13 04:38:00,
2013-01-13 05:40:00,55.5,44.7,29.97,SW,235,11.0,16.0,67,0.00,,,0.00,VWS V14.01,2013-01-13 04:40:00,
2013-01-13 05:44:00,55.5,44.7,29.97,SSW,212,7.0,11.0,67,0.00,,,0.00,VWS V14.01,2013-01-13 04:44:00,
2013-01-13 05:49:00,55.4,44.6,29.97,SW,227,16.0,16.0,67,0.00,,,0.00,VWS V14.01,2013-01-13 04:49:00,
2013-01-13 05:50:00,55.5,43.9,29.97,SW,221,11.0,16.0,65,0.00,,,0.00,VWS V14.01,2013-01-13 04:50:00,
2013-01-13 05:54:00,55.5,43.9,29.96,SSW,192,5.0,11.0,65,0.00,,,0.00,VWS V14.01,2013-01-13 04:54:00,
2013-01-13 05:59:00,55.6,43.6,29.97,SSW,205,7.0,15.0,64,0.00,,,0.00,VWS V14.01,2013-01-13 04:59:00,
2013-01-13 06:00:00,55.6,43.6,29.97,SSW,207,12.0,15.0,64,0.00,,,0.00,VWS V14.01,2013-01-13 05:00:00,
2013-01-13 06:01:00,55.6,43.6,29.97,SSW,202,9.0,15.0,64,0.00,,,0.00,VWS V14.01,2013-01-13 05:01:00,
2013-01-13 06:03:00,55.6,43.6,29.97,SW,223,6.0,15.0,64,0.00,,,0.00,VWS V14.01,2013-01-13 05:03:00,
2013-01-13 06:08:00,55.6,43.2,29.97,South,189,11.0,15.0,63,0.00,,,0.00,VWS V14.01,2013-01-13 05:08:00,
2013-01-13 06:10:00,55.7,42.9,29.97,SW,234,6.0,15.0,62,0.00,,,0.00,VWS V14.01,2013-01-13 05:10:00,
2013-01-13 06:13:00,55.6,42.8,29.97,South,173,11.0,15.0,62,0.00,,,0.00,VWS V14.01,2013-01-13 05:13:00,
2013-01-13 06:18:00,55.7,42.9,29.96,SSW,196,14.0,16.0,62,0.00,,,0.00,VWS V14.01,2013-01-13 05:18:00,
2013-01-13 06:20:00,55.7,42.9,29.97,SW,216,6.0,20.0,62,0.00,,,0.00,VWS V14.01,2013-01-13 05:20:00,
2013-01-13 06:23:00,55.7,42.5,29.97,South,188,8.0,20.0,61,0.00,,,0.00,VWS V14.01,2013-01-13 05:23:00,
2013-01-13 06:28:00,55.6,43.2,29.97,SSW,204,13.0,16.0,63,0.00,,,0.00,VWS V14.01,2013-01-13 05:28:00,
2013-01-13 06:30:00,55.7,44.5,29.96,South,190,10.0,16.0,66,0.00,,,0.00,VWS V14.01,2013-01-13 05:30:00,
2013-01-13 06:33:00,55.7,44.1,29.96,SW,221,13.0,16.0,65,0.00,,,0.00,VWS V14.01,2013-01-13 05:33:00,
2013-01-13 06:38:00,55.6,44.8,29.96,SSW,209,7.0,18.0,67,0.00,,,0.00,VWS V14.01,2013-01-13 05:38:00,
2013-01-13 06:40:00,55.6,44.8,29.96,South,180,13.0,18.0,67,0.00,,,0.00,VWS V14.01,2013-01-13 05:40:00,
2013-01-13 06:43:00,55.6,44.8,29.96,SW,215,5.0,18.0,67,0.00,,,0.00,VWS V14.01,2013-01-13 05:43:00,
2013-01-13 06:48:00,55.6,45.6,29.96,SSW,210,7.0,16.0,69,0.00,,,0.00,VWS V14.01,2013-01-13 05:48:00,
2013-01-13 06:50:00,55.6,44.8,29.96,SW,216,16.0,21.0,67,0.00,,,0.00,VWS V14.01,2013-01-13 05:50:00,
2013-01-13 06:53:00,55.6,44.8,29.96,SSW,201,10.0,21.0,67,0.00,,,0.00,VWS V14.01,2013-01-13 05:53:00,
2013-01-13 06:58:00,55.6,44.8,29.96,SSW,194,6.0,18.0,67,0.00,,,0.00,VWS V14.01,2013-01-13 05:58:00,
2013-01-13 07:00:00,55.5,43.5,29.96,SW,219,10.0,19.0,64,0.00,,,0.00,VWS V14.01,2013-01-13 06:00:00,
2013-01-13 07:03:00,55.5,44.3,29.96,SSW,209,12.0,19.0,66,0.00,,,0.00,VWS V14.01,2013-01-13 06:03:00,
2013-01-13 07:08:00,55.6,42.0,29.96,SW,216,5.0,20.0,60,0.00,,,0.00,VWS V14.01,2013-01-13 06:08:00,
2013-01-13 07:10:00,55.4,42.6,29.96,SW,217,15.0,20.0,62,0.00,,,0.00,VWS V14.01,2013-01-13 06:10:00,
2013-01-13 07:13:00,55.4,42.6,29.96,SW,219,13.0,20.0,62,0.00,,,0.00,VWS V14.01,2013-01-13 06:13:00,
2013-01-13 07:18:00,55.0,43.9,29.96,SSW,198,11.0,19.0,66,0.00,,,0.00,VWS V14.01,2013-01-13 06:18:00,
2013-01-13 07:20:00,54.6,44.7,29.96,SSW,194,12.0,19.0,69,0.00,,,0.00,VWS V14.01,2013-01-13 06:20:00,
2013-01-13 07:23:00,54.6,44.3,29.96,SSW,199,9.0,19.0,68,0.00,,,0.00,VWS V14.01,2013-01-13 06:23:00,
2013-01-13 07:28:00,54.3,44.7,29.95,South,190,6.0,14.0,70,0.00,,,0.00,VWS V14.01,2013-01-13 06:28:00,
2013-01-13 07:30:00,54.1,44.5,29.96,SW,215,11.0,16.0,70,0.00,,,0.00,VWS V14.01,2013-01-13 06:30:00,
2013-01-13 07:33:00,54.1,44.5,29.96,SSW,199,9.0,16.0,70,0.00,,,0.00,VWS V14.01,2013-01-13 06:33:00,
2013-01-13 07:38:00,54.3,44.7,29.96,SSW,205,6.0,18.0,70,0.00,,,0.00,VWS V14.01,2013-01-13 06:38:00,
2013-01-13 07:40:00,54.1,44.2,29.96,South,187,11.0,18.0,69,0.00,,,0.00,VWS V14.01,2013-01-13 06:40:00,
2013-01-13 07:43:00,54.1,44.2,29.96,SSW,192,12.0,18.0,69,0.00,,,0.00,VWS V14.01,2013-01-13 06:43:00,
2013-01-13 07:48:00,54.2,44.6,29.96,SSE,163,4.0,12.0,70,0.00,,,0.00,VWS V14.01,2013-01-13 06:48:00,
2013-01-13 07:50:00,54.5,43.8,29.97,SSW,196,13.0,14.0,67,0.00,,,0.00,VWS V14.01,2013-01-13 06:50:00,
2013-01-13 07:53:00,54.4,43.7,29.96,South,175,10.0,14.0,67,0.00,,,0.00,VWS V14.01,2013-01-13 06:53:00,
2013-01-13 07:58:00,54.1,44.2,29.97,South,173,15.0,15.0,69,0.00,,,0.00,VWS V14.01,2013-01-13 06:58:00,
2013-01-13 08:00:00,52.9,44.8,29.97,South,170,7.0,17.0,74,0.00,,,0.00,VWS V14.01,2013-01-13 07:00:00,
2013-01-13 08:03:00,53.1,44.7,29.97,South,172,11.0,17.0,73,0.00,,,0.00,VWS V14.01,2013-01-13 07:03:00,
2013-01-13 08:08:00,52.6,45.3,29.97,SE,126,8.0,12.0,76,0.00,,,0.00,VWS V14.01,2013-01-13 07:08:00,
2013-01-13 08:10:00,51.9,45.9,29.96,SE,125,5.0,12.0,80,0.00,,,0.00,VWS V14.01,2013-01-13 07:10:00,
2013-01-13 08:13:00,52.0,45.7,29.96,SE,136,7.0,12.0,79,0.00,,,0.00,VWS V14.01,2013-01-13 07:13:00,
2013-01-13 08:18:00,51.7,46.4,29.96,SE,136,7.0,11.0,82,0.00,,,0.00,VWS V14.01,2013-01-13 07:18:00,
2013-01-13 08:20:00,51.7,46.7,29.97,SE,135,0.0,11.0,83,0.00,,,0.00,VWS V14.01,2013-01-13 07:20:00,
2013-01-13 08:23:00,51.7,46.7,29.97,SE,135,2.0,11.0,83,0.00,,,0.00,VWS V14.01,2013-01-13 07:23:00,
2013-01-13 08:28:00,51.8,46.8,29.97,SE,136,2.0,4.0,83,0.00,,,0.00,VWS V14.01,2013-01-13 07:28:00,
2013-01-13 08:30:00,52.0,47.0,29.97,SSE,162,2.0,6.0,83,0.00,,,0.00,VWS V14.01,2013-01-13 07:30:00,
2013-01-13 08:33:00,52.0,47.0,29.97,SSE,162,2.0,6.0,83,0.00,,,0.00,VWS V14.01,2013-01-13 07:33:00,
2013-01-13 08:38:00,52.3,47.3,29.97,SSE,161,3.0,6.0,83,0.00,,,0.00,VWS V14.01,2013-01-13 07:38:00,
2013-01-13 08:40:00,53.0,48.0,29.97,SSE,155,8.0,8.0,83,0.00,,,0.00,VWS V14.01,2013-01-13 07:40:00,
2013-01-13 08:43:00,52.9,47.9,29.97,SSE,163,3.0,7.0,83,0.00,,,0.00,VWS V14.01,2013-01-13 07:43:00,
2013-01-13 08:48:00,53.3,48.3,29.97,SSE,157,7.0,7.0,83,0.00,,,0.00,VWS V14.01,2013-01-13 07:48:00,
2013-01-13 08:50:00,53.5,48.5,29.97,SSE,159,6.0,8.0,83,0.00,,,0.00,VWS V14.01,2013-01-13 07:50:00,
2013-01-13 08:53:00,53.5,48.5,29.97,SE,137,5.0,8.0,83,0.00,,,0.00,VWS V14.01,2013-01-13 07:53:00,
2013-01-13 08:58:00,53.9,48.5,29.97,South,186,2.0,7.0,82,0.00,,,0.00,VWS V14.01,2013-01-13 07:58:00,
2013-01-13 09:00:00,54.2,48.2,29.96,SSW,194,7.0,8.0,80,0.00,,,0.00,VWS V14.01,2013-01-13 08:00:00,
2013-01-13 09:03:00,54.2,48.2,29.96,SSW,193,7.0,7.0,80,0.00,,,0.00,VWS V14.01,2013-01-13 08:03:00,
2013-01-13 09:09:00,54.6,47.9,29.96,South,182,4.0,7.0,78,0.00,,,0.00,VWS V14.01,2013-01-13 08:09:00,
2013-01-13 09:10:00,54.7,47.6,29.97,South,171,6.0,8.0,77,0.00,,,0.00,VWS V14.01,2013-01-13 08:10:00,
2013-01-13 09:14:00,54.7,47.6,29.97,South,171,6.0,8.0,77,0.00,,,0.00,VWS V14.01,2013-01-13 08:14:00,
2013-01-13 09:19:00,54.6,47.5,29.97,SSE,163,3.0,10.0,77,0.00,,,0.00,VWS V14.01,2013-01-13 08:19:00,
2013-01-13 09:20:00,55.1,48.4,29.97,South,186,2.0,10.0,78,0.00,,,0.00,VWS V14.01,2013-01-13 08:20:00,
2013-01-13 09:24:00,55.0,48.3,29.97,South,186,4.0,10.0,78,0.00,,,0.00,VWS V14.01,2013-01-13 08:24:00,
2013-01-13 09:29:00,55.6,48.9,29.96,South,173,3.0,9.0,78,0.00,,,0.00,VWS V14.01,2013-01-13 08:29:00,
2013-01-13 09:30:00,55.8,49.0,29.96,South,173,8.0,10.0,78,0.00,,,0.00,VWS V14.01,2013-01-13 08:30:00,
2013-01-13 09:34:00,55.8,49.0,29.96,SSE,157,7.0,8.0,78,0.00,,,0.00,VWS V14.01,2013-01-13 08:34:00,
2013-01-13 09:39:00,55.6,48.2,29.96,SSW,200,4.0,11.0,76,0.00,,,0.00,VWS V14.01,2013-01-13 08:39:00,
2013-01-13 09:40:00,55.7,48.6,29.96,South,184,5.0,11.0,77,0.00,,,0.00,VWS V14.01,2013-01-13 08:40:00,
2013-01-13 09:44:00,55.7,48.6,29.96,South,188,5.0,11.0,77,0.00,,,0.00,VWS V14.01,2013-01-13 08:44:00,
2013-01-13 09:49:00,55.7,48.6,29.96,SSW,203,6.0,7.0,77,0.00,,,0.00,VWS V14.01,2013-01-13 08:49:00,
2013-01-13 09:50:00,55.8,48.7,29.96,SW,226,3.0,13.0,77,0.00,,,0.00,VWS V14.01,2013-01-13 08:50:00,
2013-01-13 09:54:00,55.8,48.7,29.96,WSW,240,11.0,13.0,77,0.00,,,0.00,VWS V14.01,2013-01-13 08:54:00,
2013-01-13 09:59:00,56.4,48.2,29.96,South,190,9.0,18.0,74,0.00,,,0.00,VWS V14.01,2013-01-13 08:59:00,
2013-01-13 10:00:00,56.6,47.3,29.96,SW,222,14.0,18.0,71,0.00,,,0.00,VWS V14.01,2013-01-13 09:00:00,
2013-01-13 10:04:00,56.6,47.3,29.96,SW,225,15.0,18.0,71,0.00,,,0.00,VWS V14.01,2013-01-13 09:04:00,
2013-01-13 10:09:00,56.7,47.4,29.96,SW,219,13.0,14.0,71,0.00,,,0.00,VWS V14.01,2013-01-13 09:09:00,
2013-01-13 10:10:00,57.0,48.1,29.96,South,182,6.0,15.0,72,0.00,,,0.00,VWS V14.01,2013-01-13 09:10:00,
2013-01-13 10:14:00,57.0,48.1,29.96,South,182,6.0,15.0,72,0.00,,,0.00,VWS V14.01,2013-01-13 09:14:00,
2013-01-13 10:19:00,57.3,49.1,29.96,SSW,209,10.0,15.0,74,0.00,,,0.00,VWS V14.01,2013-01-13 09:19:00,
2013-01-13 10:20:00,56.9,48.0,29.96,SW,223,15.0,22.0,72,0.00,,,0.00,VWS V14.01,2013-01-13 09:20:00,
2013-01-13 10:24:00,56.9,48.0,29.96,SW,232,14.0,15.0,72,0.00,,,0.00,VWS V14.01,2013-01-13 09:24:00,
2013-01-13 10:29:00,56.9,47.6,29.96,SW,228,16.0,19.0,71,0.00,,,0.00,VWS V14.01,2013-01-13 09:29:00,
2013-01-13 10:30:00,57.0,48.4,29.96,SW,219,11.0,19.0,73,0.00,,,0.00,VWS V14.01,2013-01-13 09:30:00,
2013-01-13 10:34:00,57.0,48.4,29.96,SW,219,11.0,19.0,73,0.00,,,0.00,VWS V14.01,2013-01-13 09:34:00,
2013-01-13 10:39:00,56.9,48.0,29.97,SSW,211,12.0,20.0,72,0.00,,,0.00,VWS V14.01,2013-01-13 09:39:00,
2013-01-13 10:40:00,56.9,48.0,29.96,SW,234,15.0,22.0,72,0.00,,,0.00,VWS V14.01,2013-01-13 09:40:00,
2013-01-13 10:44:00,56.9,48.0,29.96,SW,234,15.0,22.0,72,0.00,,,0.00,VWS V14.01,2013-01-13 09:44:00,
2013-01-13 10:49:00,56.8,48.2,29.96,SW,216,12.0,20.0,73,0.00,,,0.00,VWS V14.01,2013-01-13 09:49:00,
2013-01-13 10:50:00,56.9,47.6,29.95,SW,232,15.0,20.0,71,0.00,,,0.00,VWS V14.01,2013-01-13 09:50:00,
2013-01-13 10:54:00,56.9,47.6,29.95,SW,232,15.0,20.0,71,0.00,,,0.00,VWS V14.01,2013-01-13 09:54:00,
2013-01-13 10:59:00,56.9,48.3,29.95,SW,234,10.0,17.0,73,0.00,,,0.00,VWS V14.01,2013-01-13 09:59:00,
2013-01-13 11:00:00,56.8,48.2,29.95,SSW,205,10.0,18.0,73,0.00,,,0.00,VWS V14.01,2013-01-13 10:00:00,
2013-01-13 11:04:00,56.8,48.2,29.95,SSW,205,10.0,18.0,73,0.00,,,0.00,VWS V14.01,2013-01-13 10:04:00,
2013-01-13 11:09:00,56.8,48.6,29.95,SW,216,18.0,22.0,74,0.00,,,0.00,VWS V14.01,2013-01-13 10:09:00,
2013-01-13 11:10:00,56.8,48.6,29.94,South,190,11.0,22.0,74,0.00,,,0.00,VWS V14.01,2013-01-13 10:10:00,
2013-01-13 11:14:00,56.8,48.6,29.94,SSW,199,10.0,11.0,74,0.00,,,0.00,VWS V14.01,2013-01-13 10:14:00,
2013-01-13 11:19:00,56.3,48.8,29.95,SW,215,8.0,23.0,76,0.00,,,0.00,VWS V14.01,2013-01-13 10:19:00,
2013-01-13 11:20:00,56.2,47.7,29.94,South,186,13.0,23.0,73,0.00,,,0.00,VWS V14.01,2013-01-13 10:20:00,
2013-01-13 11:24:00,56.2,47.7,29.94,South,186,13.0,23.0,73,0.00,,,0.00,VWS V14.01,2013-01-13 10:24:00,
2013-01-13 11:29:00,56.3,46.7,29.94,SSW,205,13.0,22.0,70,0.00,,,0.00,VWS V14.01,2013-01-13 10:29:00,
2013-01-13 11:30:00,56.3,46.7,29.94,WSW,242,12.0,22.0,70,0.00,,,0.00,VWS V14.01,2013-01-13 10:30:00,
2013-01-13 11:34:00,56.3,46.7,29.94,WSW,242,12.0,22.0,70,0.00,,,0.00,VWS V14.01,2013-01-13 10:34:00,
2013-01-13 11:39:00,56.2,47.3,29.94,WSW,244,13.0,22.0,72,0.00,,,0.00,VWS V14.01,2013-01-13 10:39:00,
2013-01-13 11:40:00,56.2,47.7,29.94,WSW,238,9.0,22.0,73,0.00,,,0.00,VWS V14.01,2013-01-13 10:40:00,
2013-01-13 11:44:00,56.2,47.7,29.94,WSW,238,9.0,22.0,73,0.00,,,0.00,VWS V14.01,2013-01-13 10:44:00,
2013-01-13 11:49:00,56.1,47.9,29.93,SSW,195,7.0,15.0,74,0.00,,,0.00,VWS V14.01,2013-01-13 10:49:00,
2013-01-13 11:50:00,56.2,48.4,29.93,SW,215,6.0,15.0,75,0.00,,,0.00,VWS V14.01,2013-01-13 10:50:00,
2013-01-13 11:54:00,56.2,48.4,29.93,SW,215,6.0,15.0,75,0.00,,,0.00,VWS V14.01,2013-01-13 10:54:00,
2013-01-13 11:59:00,56.2,48.4,29.93,SW,230,16.0,17.0,75,0.00,,,0.00,VWS V14.01,2013-01-13 10:59:00,
2013-01-13 12:00:00,56.2,47.7,29.93,SW,217,18.0,21.0,73,0.00,,,0.00,VWS V14.01,2013-01-13 11:00:00,
2013-01-13 12:04:00,56.2,47.7,29.93,WSW,243,20.0,20.0,73,0.00,,,0.00,VWS V14.01,2013-01-13 11:04:00,
2013-01-13 12:09:00,55.8,47.3,29.93,SSW,207,9.0,20.0,73,0.00,,,0.00,VWS V14.01,2013-01-13 11:09:00,
2013-01-13 12:10:00,55.1,47.3,29.92,SSW,211,14.0,21.0,75,0.00,,,0.00,VWS V14.01,2013-01-13 11:10:00,
2013-01-13 12:14:00,55.1,47.3,29.92,SW,229,20.0,20.0,75,0.00,,,0.00,VWS V14.01,2013-01-13 11:14:00,
2013-01-13 12:19:00,54.7,47.6,29.92,South,189,8.0,22.0,77,0.00,,,0.00,VWS V14.01,2013-01-13 11:19:00,
2013-01-13 12:20:00,54.5,48.1,29.92,SSW,192,6.0,22.0,79,0.01,,,0.01,VWS V14.01,2013-01-13 11:20:00,
2013-01-13 12:24:00,54.5,48.1,29.92,SSW,192,6.0,22.0,79,0.01,,,0.01,VWS V14.01,2013-01-13 11:24:00,
2013-01-13 12:29:00,54.0,48.3,29.92,SSW,207,11.0,21.0,81,0.01,,,0.01,VWS V14.01,2013-01-13 11:29:00,
2013-01-13 12:30:00,53.5,48.8,29.92,SSW,210,11.0,21.0,84,0.02,,,0.02,VWS V14.01,2013-01-13 11:30:00,
2013-01-13 12:34:00,53.5,48.8,29.92,SSW,210,11.0,21.0,84,0.02,,,0.02,VWS V14.01,2013-01-13 11:34:00,
2013-01-13 12:39:00,53.2,49.1,29.91,South,175,11.0,22.0,86,0.03,,,0.03,VWS V14.01,2013-01-13 11:39:00,
2013-01-13 12:40:00,53.2,49.1,29.91,South,178,7.0,22.0,86,0.03,,,0.03,VWS V14.01,2013-01-13 11:40:00,
2013-01-13 12:44:00,53.2,49.1,29.91,South,178,7.0,22.0,86,0.03,,,0.03,VWS V14.01,2013-01-13 11:44:00,
2013-01-13 12:49:00,53.2,49.4,29.91,SSW,195,7.0,19.0,87,0.03,,,0.03,VWS V14.01,2013-01-13 11:49:00,
2013-01-13 12:50:00,53.3,49.5,29.91,South,189,9.0,19.0,87,0.03,,,0.03,VWS V14.01,2013-01-13 11:50:00,
2013-01-13 12:54:00,53.3,49.5,29.91,SW,224,6.0,9.0,87,0.03,,,0.03,VWS V14.01,2013-01-13 11:54:00,
2013-01-13 12:59:00,53.3,49.5,29.91,SSW,192,8.0,16.0,87,0.04,,,0.04,VWS V14.01,2013-01-13 11:59:00,
2013-01-13 13:00:00,53.4,49.6,29.91,SSW,198,8.0,21.0,87,0.05,,,0.05,VWS V14.01,2013-01-13 12:00:00,
2013-01-13 13:04:00,53.3,49.5,29.91,South,175,13.0,21.0,87,0.05,,,0.05,VWS V14.01,2013-01-13 12:04:00,
2013-01-13 13:09:00,53.3,49.5,29.91,South,172,17.0,17.0,87,0.06,,,0.06,VWS V14.01,2013-01-13 12:09:00,
2013-01-13 13:10:00,53.0,49.2,29.91,South,182,16.0,17.0,87,0.06,,,0.06,VWS V14.01,2013-01-13 12:10:00,
2013-01-13 13:14:00,53.0,49.2,29.91,South,182,16.0,17.0,87,0.06,,,0.06,VWS V14.01,2013-01-13 12:14:00,
2013-01-13 13:19:00,53.1,49.7,29.90,SSW,200,7.0,16.0,88,0.07,,,0.07,VWS V14.01,2013-01-13 12:19:00,
2013-01-13 13:20:00,52.7,49.2,29.91,SW,214,15.0,17.0,88,0.08,,,0.08,VWS V14.01,2013-01-13 12:20:00,
2013-01-13 13:24:00,52.7,49.2,29.91,SW,214,15.0,17.0,88,0.08,,,0.08,VWS V14.01,2013-01-13 12:24:00,
2013-01-13 13:29:00,52.9,49.5,29.91,SSW,197,13.0,17.0,88,0.08,,,0.09,VWS V14.01,2013-01-13 12:29:00,
2013-01-13 13:30:00,53.0,49.8,29.91,SSW,205,12.0,17.0,89,0.09,,,0.10,VWS V14.01,2013-01-13 12:30:00,
2013-01-13 13:34:00,53.0,49.8,29.91,SSW,213,12.0,12.0,89,0.08,,,0.10,VWS V14.01,2013-01-13 12:34:00,
2013-01-13 13:39:00,52.7,49.8,29.91,SW,233,10.0,17.0,90,0.10,,,0.12,VWS V14.01,2013-01-13 12:39:00,
2013-01-13 13:40:00,52.6,49.8,29.91,SSW,198,6.0,17.0,90,0.11,,,0.13,VWS V14.01,2013-01-13 12:40:00,
2013-01-13 13:44:00,52.6,49.8,29.90,SSW,198,8.0,8.0,90,0.10,,,0.13,VWS V14.01,2013-01-13 12:44:00,
2013-01-13 13:49:00,52.4,49.6,29.90,SSW,213,5.0,12.0,90,0.11,,,0.14,VWS V14.01,2013-01-13 12:49:00,
2013-01-13 13:50:00,52.2,49.4,29.90,SSW,211,5.0,12.0,90,0.12,,,0.15,VWS V14.01,2013-01-13 12:50:00,
2013-01-13 13:54:00,52.2,49.4,29.90,SSW,211,5.0,5.0,90,0.12,,,0.15,VWS V14.01,2013-01-13 12:54:00,
2013-01-13 13:59:00,52.4,49.8,29.90,SSW,192,8.0,8.0,91,0.13,,,0.16,VWS V14.01,2013-01-13 12:59:00,
2013-01-13 14:00:00,52.4,49.8,29.90,SSW,196,7.0,9.0,91,0.15,,,0.18,VWS V14.01,2013-01-13 13:00:00,
2013-01-13 14:04:00,52.4,49.8,29.90,SSW,196,7.0,9.0,91,0.15,,,0.18,VWS V14.01,2013-01-13 13:04:00,
2013-01-13 14:09:00,52.3,49.8,29.89,SSW,192,9.0,11.0,91,0.14,,,0.19,VWS V14.01,2013-01-13 13:09:00,
2013-01-13 14:10:00,52.3,49.8,29.89,SE,143,4.0,13.0,91,0.15,,,0.20,VWS V14.01,2013-01-13 13:10:00,
2013-01-13 14:14:00,52.3,49.8,29.89,South,182,3.0,4.0,91,0.14,,,0.20,VWS V14.01,2013-01-13 13:14:00,
2013-01-13 14:20:00,52.1,49.8,29.88,SSE,162,7.0,11.0,92,0.15,,,0.21,VWS V14.01,2013-01-13 13:20:00,
2013-01-13 14:25:00,52.0,49.8,29.89,South,169,4.0,7.0,92,0.13,,,0.21,VWS V14.01,2013-01-13 13:25:00,
2013-01-13 14:30:00,52.1,49.8,29.89,SE,146,4.0,9.0,92,0.13,,,0.21,VWS V14.01,2013-01-13 13:30:00,
2013-01-13 14:35:00,52.3,50.0,29.88,South,188,6.0,7.0,92,0.11,,,0.21,VWS V14.01,2013-01-13 13:35:00,
2013-01-13 14:40:00,52.5,50.2,29.88,South,169,8.0,10.0,92,0.11,,,0.21,VWS V14.01,2013-01-13 13:40:00,
2013-01-13 14:45:00,52.9,50.3,29.89,South,179,7.0,11.0,91,0.08,,,0.21,VWS V14.01,2013-01-13 13:45:00,
2013-01-13 14:50:00,53.1,50.5,29.89,SSW,213,19.0,19.0,91,0.08,,,0.21,VWS V14.01,2013-01-13 13:50:00,
2013-01-13 14:55:00,53.1,50.5,29.88,SSW,200,13.0,15.0,91,0.06,,,0.21,VWS V14.01,2013-01-13 13:55:00,
2013-01-13 15:00:00,53.4,50.8,29.88,SSW,212,8.0,17.0,91,0.06,,,0.21,VWS V14.01,2013-01-13 14:00:00,
2013-01-13 15:05:00,53.5,50.9,29.88,South,187,10.0,13.0,91,0.03,,,0.21,VWS V14.01,2013-01-13 14:05:00,
2013-01-13 15:10:00,53.5,50.9,29.88,South,185,9.0,13.0,91,0.03,,,0.21,VWS V14.01,2013-01-13 14:10:00,
2013-01-13 15:15:00,53.7,51.1,29.88,South,175,9.0,9.0,91,0.01,,,0.21,VWS V14.01,2013-01-13 14:15:00,
2013-01-13 15:20:00,54.0,51.1,29.88,SSW,201,7.0,11.0,90,0.01,,,0.21,VWS V14.01,2013-01-13 14:20:00,
2013-01-13 15:25:00,54.1,51.2,29.88,SSW,198,10.0,10.0,90,0.00,,,0.21,VWS V14.01,2013-01-13 14:25:00,
2013-01-13 15:30:00,54.2,51.3,29.89,South,171,12.0,12.0,90,0.00,,,0.21,VWS V14.01,2013-01-13 14:30:00,
2013-01-13 15:35:00,54.4,51.5,29.89,SSW,210,9.0,10.0,90,0.00,,,0.21,VWS V14.01,2013-01-13 14:35:00,
2013-01-13 15:40:00,54.6,51.4,29.88,SSW,200,8.0,13.0,89,0.00,,,0.21,VWS V14.01,2013-01-13 14:40:00,
2013-01-13 15:45:00,55.0,51.8,29.88,South,169,6.0,8.0,89,0.00,,,0.21,VWS V14.01,2013-01-13 14:45:00,
2013-01-13 15:50:00,54.9,51.4,29.88,South,169,9.0,9.0,88,0.00,,,0.21,VWS V14.01,2013-01-13 14:50:00,
2013-01-13 15:55:00,55.1,51.6,29.88,SSW,203,5.0,7.0,88,0.00,,,0.21,VWS V14.01,2013-01-13 14:55:00,
2013-01-13 16:00:00,55.7,52.2,29.88,SSW,204,6.0,13.0,88,0.00,,,0.21,VWS V14.01,2013-01-13 15:00:00,
2013-01-13 16:05:00,56.5,53.0,29.88,WSW,238,8.0,8.0,88,0.00,,,0.21,VWS V14.01,2013-01-13 15:05:00,
2013-01-13 16:10:00,57.0,53.5,29.88,WSW,242,16.0,21.0,88,0.00,,,0.21,VWS V14.01,2013-01-13 15:10:00,
2013-01-13 16:15:00,57.4,53.6,29.88,WSW,238,11.0,19.0,87,0.00,,,0.21,VWS V14.01,2013-01-13 15:15:00,
2013-01-13 16:20:00,57.4,53.6,29.88,West,279,11.0,20.0,87,0.00,,,0.21,VWS V14.01,2013-01-13 15:20:00,
2013-01-13 16:25:00,57.4,53.6,29.88,SSW,211,8.0,15.0,87,0.00,,,0.21,VWS V14.01,2013-01-13 15:25:00,
2013-01-13 16:30:00,57.3,53.5,29.88,SW,224,15.0,19.0,87,0.00,,,0.21,VWS V14.01,2013-01-13 15:30:00,
2013-01-13 16:35:00,57.4,53.2,29.88,SSW,207,14.0,17.0,86,0.00,,,0.21,VWS V14.01,2013-01-13 15:35:00,
2013-01-13 16:40:00,57.4,53.2,29.87,SSW,213,9.0,22.0,86,0.00,,,0.21,VWS V14.01,2013-01-13 15:40:00,
2013-01-13 16:45:00,57.4,52.9,29.87,SW,234,9.0,17.0,85,0.00,,,0.21,VWS V14.01,2013-01-13 15:45:00,
2013-01-13 16:50:00,57.5,52.7,29.87,SSW,209,14.0,27.0,84,0.00,,,0.21,VWS V14.01,2013-01-13 15:50:00,
2013-01-13 16:55:00,57.5,53.0,29.88,SW,233,16.0,21.0,85,0.00,,,0.21,VWS V14.01,2013-01-13 15:55:00,
2013-01-13 17:00:00,57.5,52.7,29.87,WSW,251,13.0,21.0,84,0.00,,,0.21,VWS V14.01,2013-01-13 16:00:00,
2013-01-13 17:05:00,57.6,52.8,29.87,SW,214,11.0,16.0,84,0.00,,,0.21,VWS V14.01,2013-01-13 16:05:00,
2013-01-13 17:10:00,57.6,52.8,29.87,SW,223,10.0,20.0,84,0.00,,,0.21,VWS V14.01,2013-01-13 16:10:00,
2013-01-13 17:16:00,57.5,52.4,29.87,SW,224,13.0,22.0,83,0.00,,,0.21,VWS V14.01,2013-01-13 16:16:00,
2013-01-13 17:20:00,57.6,52.5,29.87,SSW,211,8.0,22.0,83,0.00,,,0.21,VWS V14.01,2013-01-13 16:20:00,
2013-01-13 17:21:00,57.5,52.4,29.87,SW,227,18.0,22.0,83,0.00,,,0.21,VWS V14.01,2013-01-13 16:21:00,
2013-01-13 17:26:00,57.6,52.5,29.87,SW,219,12.0,13.0,83,0.00,,,0.21,VWS V14.01,2013-01-13 16:26:00,
2013-01-13 17:30:00,57.5,52.4,29.87,SSW,211,12.0,20.0,83,0.00,,,0.21,VWS V14.01,2013-01-13 16:30:00,
2013-01-13 17:31:00,57.5,52.1,29.87,WSW,247,9.0,20.0,82,0.00,,,0.21,VWS V14.01,2013-01-13 16:31:00,
2013-01-13 17:36:00,57.5,52.4,29.87,SW,224,23.0,23.0,83,0.00,,,0.21,VWS V14.01,2013-01-13 16:36:00,
2013-01-13 17:40:00,57.5,52.7,29.88,SW,218,11.0,23.0,84,0.00,,,0.21,VWS V14.01,2013-01-13 16:40:00,
2013-01-13 17:41:00,57.6,52.5,29.87,SW,217,7.0,23.0,83,0.00,,,0.21,VWS V14.01,2013-01-13 16:41:00,
2013-01-13 17:46:00,57.5,52.7,29.88,South,186,13.0,17.0,84,0.00,,,0.21,VWS V14.01,2013-01-13 16:46:00,
2013-01-13 17:50:00,57.7,52.9,29.88,SW,235,6.0,22.0,84,0.00,,,0.21,VWS V14.01,2013-01-13 16:50:00,
2013-01-13 17:51:00,57.7,52.6,29.88,SSW,213,7.0,22.0,83,0.00,,,0.21,VWS V14.01,2013-01-13 16:51:00,
2013-01-13 17:56:00,57.6,52.8,29.88,SSW,206,11.0,11.0,84,0.00,,,0.21,VWS V14.01,2013-01-13 16:56:00,
2013-01-13 18:00:00,57.6,53.1,29.87,SSW,202,12.0,17.0,85,0.00,,,0.21,VWS V14.01,2013-01-13 17:00:00,
2013-01-13 18:01:00,57.6,53.1,29.88,SSW,213,11.0,17.0,85,0.00,,,0.21,VWS V14.01,2013-01-13 17:01:00,
2013-01-13 18:06:00,57.6,53.1,29.87,SSW,198,7.0,18.0,85,0.00,,,0.21,VWS V14.01,2013-01-13 17:06:00,
2013-01-13 18:10:00,57.7,53.2,29.87,SSW,211,20.0,21.0,85,0.00,,,0.21,VWS V14.01,2013-01-13 17:10:00,
2013-01-13 18:11:00,57.7,53.2,29.87,SW,215,20.0,20.0,85,0.00,,,0.21,VWS V14.01,2013-01-13 17:11:00,
2013-01-13 18:16:00,57.8,53.3,29.87,SW,217,19.0,20.0,85,0.00,,,0.21,VWS V14.01,2013-01-13 17:16:00,
2013-01-13 18:20:00,57.7,53.2,29.87,SSW,197,16.0,26.0,85,0.00,,,0.21,VWS V14.01,2013-01-13 17:20:00,
2013-01-13 18:21:00,57.7,53.2,29.87,WSW,240,18.0,26.0,85,0.00,,,0.21,VWS V14.01,2013-01-13 17:21:00,
2013-01-13 18:26:00,57.8,53.3,29.87,SW,218,12.0,22.0,85,0.00,,,0.21,VWS V14.01,2013-01-13 17:26:00,
2013-01-13 18:30:00,57.7,53.5,29.87,SW,215,16.0,26.0,86,0.00,,,0.21,VWS V14.01,2013-01-13 17:30:00,
2013-01-13 18:31:00,57.6,53.5,29.87,SW,223,26.0,26.0,86,0.00,,,0.21,VWS V14.01,2013-01-13 17:31:00,
2013-01-13 18:36:00,57.7,53.5,29.87,SSW,203,14.0,18.0,86,0.00,,,0.21,VWS V14.01,2013-01-13 17:36:00,
2013-01-13 18:40:00,57.6,53.5,29.87,SW,217,21.0,26.0,86,0.01,,,0.22,VWS V14.01,2013-01-13 17:40:00,
2013-01-13 18:41:00,57.6,53.5,29.87,South,184,23.0,26.0,86,0.01,,,0.22,VWS V14.01,2013-01-13 17:41:00,
2013-01-13 18:46:00,57.6,53.5,29.87,SSW,204,20.0,25.0,86,0.01,,,0.22,VWS V14.01,2013-01-13 17:46:00,
2013-01-13 18:50:00,57.6,53.5,29.87,SSW,208,16.0,25.0,86,0.01,,,0.22,VWS V14.01,2013-01-13 17:50:00,
2013-01-13 18:51:00,57.6,53.5,29.87,SSW,209,17.0,25.0,86,0.01,,,0.22,VWS V14.01,2013-01-13 17:51:00,
2013-01-13 18:56:00,57.6,53.5,29.87,SW,223,14.0,16.0,86,0.01,,,0.22,VWS V14.01,2013-01-13 17:56:00,
2013-01-13 19:00:00,57.6,53.1,29.87,SW,221,10.0,25.0,85,0.01,,,0.22,VWS V14.01,2013-01-13 18:00:00,
2013-01-13 19:01:00,57.6,53.1,29.87,SW,218,19.0,25.0,85,0.01,,,0.22,VWS V14.01,2013-01-13 18:01:00,
2013-01-13 19:06:00,57.6,53.1,29.87,SW,226,17.0,18.0,85,0.01,,,0.22,VWS V14.01,2013-01-13 18:06:00,
2013-01-13 19:10:00,57.6,53.1,29.86,South,189,13.0,26.0,85,0.01,,,0.22,VWS V14.01,2013-01-13 18:10:00,
2013-01-13 19:11:00,57.6,53.1,29.87,SSW,202,12.0,26.0,85,0.01,,,0.22,VWS V14.01,2013-01-13 18:11:00,
2013-01-13 19:16:00,57.7,53.2,29.86,South,185,18.0,22.0,85,0.01,,,0.22,VWS V14.01,2013-01-13 18:16:00,
2013-01-13 19:20:00,57.6,52.8,29.86,SSW,198,19.0,27.0,84,0.01,,,0.22,VWS V14.01,2013-01-13 18:20:00,
2013-01-13 19:21:00,57.7,53.2,29.86,SSW,196,24.0,27.0,85,0.01,,,0.22,VWS V14.01,2013-01-13 18:21:00,
2013-01-13 19:26:00,57.6,52.8,29.86,SSW,213,21.0,21.0,84,0.01,,,0.22,VWS V14.01,2013-01-13 18:26:00,
2013-01-13 19:30:00,57.7,52.9,29.86,SW,223,17.0,28.0,84,0.01,,,0.22,VWS V14.01,2013-01-13 18:30:00,
2013-01-13 19:31:00,57.7,52.9,29.86,SW,229,23.0,28.0,84,0.01,,,0.22,VWS V14.01,2013-01-13 18:31:00,
2013-01-13 19:36:00,57.7,52.9,29.86,SSW,208,10.0,20.0,84,0.01,,,0.22,VWS V14.01,2013-01-13 18:36:00,
2013-01-13 19:40:00,57.7,52.9,29.86,SSW,207,15.0,26.0,84,0.01,,,0.22,VWS V14.01,2013-01-13 18:40:00,
2013-01-13 19:41:00,57.6,52.8,29.86,SW,224,10.0,26.0,84,0.01,,,0.22,VWS V14.01,2013-01-13 18:41:00,
2013-01-13 19:46:00,57.7,52.9,29.86,SSW,196,18.0,18.0,84,0.00,,,0.22,VWS V14.01,2013-01-13 18:46:00,
2013-01-13 19:50:00,57.6,52.8,29.86,SSW,213,14.0,23.0,84,0.00,,,0.22,VWS V14.01,2013-01-13 18:50:00,
2013-01-13 19:51:00,57.6,52.8,29.86,SW,215,17.0,23.0,84,0.00,,,0.22,VWS V14.01,2013-01-13 18:51:00,
2013-01-13 19:56:00,57.7,53.2,29.85,SW,222,17.0,21.0,85,0.00,,,0.22,VWS V14.01,2013-01-13 18:56:00,
2013-01-13 20:00:00,57.7,53.2,29.85,South,172,8.0,24.0,85,0.00,,,0.22,VWS V14.01,2013-01-13 19:00:00,
2013-01-13 20:01:00,57.8,53.3,29.85,South,190,19.0,24.0,85,0.00,,,0.22,VWS V14.01,2013-01-13 19:01:00,
2013-01-13 20:06:00,57.7,53.2,29.85,SW,221,11.0,18.0,85,0.00,,,0.22,VWS V14.01,2013-01-13 19:06:00,
2013-01-13 20:10:00,57.6,52.8,29.85,SSW,213,25.0,25.0,84,0.00,,,0.22,VWS V14.01,2013-01-13 19:10:00,
2013-01-13 20:11:00,57.7,53.2,29.85,SW,226,7.0,25.0,85,0.00,,,0.22,VWS V14.01,2013-01-13 19:11:00,
2013-01-13 20:16:00,57.7,52.9,29.85,SSW,213,7.0,26.0,84,0.00,,,0.22,VWS V14.01,2013-01-13 19:16:00,
2013-01-13 20:20:00,57.6,52.5,29.86,South,184,11.0,26.0,83,0.00,,,0.22,VWS V14.01,2013-01-13 19:20:00,
2013-01-13 20:21:00,57.8,53.0,29.86,SSW,197,18.0,26.0,84,0.00,,,0.22,VWS V14.01,2013-01-13 19:21:00,
2013-01-13 20:26:00,57.4,52.0,29.86,SSW,204,8.0,17.0,82,0.00,,,0.22,VWS V14.01,2013-01-13 19:26:00,
2013-01-13 20:30:00,57.7,52.2,29.85,SW,214,18.0,27.0,82,0.00,,,0.22,VWS V14.01,2013-01-13 19:30:00,
2013-01-13 20:31:00,57.8,52.3,29.85,SSW,211,21.0,27.0,82,0.00,,,0.22,VWS V14.01,2013-01-13 19:31:00,
2013-01-13 20:36:00,57.7,52.6,29.85,SW,227,18.0,21.0,83,0.00,,,0.22,VWS V14.01,2013-01-13 19:36:00,
2013-01-13 20:40:00,57.8,52.3,29.85,South,183,18.0,24.0,82,0.00,,,0.22,VWS V14.01,2013-01-13 19:40:00,
2013-01-13 20:41:00,57.8,52.7,29.85,SSW,204,9.0,24.0,83,0.00,,,0.22,VWS V14.01,2013-01-13 19:41:00,
2013-01-13 20:46:00,57.9,52.5,29.85,South,180,15.0,26.0,82,0.00,,,0.22,VWS V14.01,2013-01-13 19:46:00,
2013-01-13 20:50:00,57.8,52.7,29.85,SSW,201,9.0,26.0,83,0.00,,,0.22,VWS V14.01,2013-01-13 19:50:00,
2013-01-13 20:51:00,57.9,52.8,29.85,SW,215,17.0,26.0,83,0.00,,,0.22,VWS V14.01,2013-01-13 19:51:00,
2013-01-13 20:56:00,57.7,52.6,29.85,South,171,14.0,16.0,83,0.00,,,0.22,VWS V14.01,2013-01-13 19:56:00,
2013-01-13 21:00:00,57.8,53.0,29.85,SSW,207,16.0,23.0,84,0.00,,,0.22,VWS V14.01,2013-01-13 20:00:00,
2013-01-13 21:01:00,57.8,53.0,29.85,SW,227,12.0,20.0,84,0.00,,,0.22,VWS V14.01,2013-01-13 20:01:00,
2013-01-13 21:06:00,57.9,53.1,29.85,SW,214,22.0,23.0,84,0.00,,,0.22,VWS V14.01,2013-01-13 20:06:00,
2013-01-13 21:10:00,57.9,52.8,29.85,SSW,206,15.0,26.0,83,0.00,,,0.22,VWS V14.01,2013-01-13 20:10:00,
2013-01-13 21:11:00,57.8,52.7,29.85,SSW,208,15.0,26.0,83,0.00,,,0.22,VWS V14.01,2013-01-13 20:11:00,
2013-01-13 21:16:00,57.9,52.8,29.85,SSW,196,21.0,26.0,83,0.00,,,0.22,VWS V14.01,2013-01-13 20:16:00,
2013-01-13 21:20:00,56.9,49.1,29.85,South,185,15.0,37.0,75,0.00,,,0.22,VWS V14.01,2013-01-13 20:20:00,
2013-01-13 21:21:00,57.4,51.0,29.86,SSW,209,20.0,29.0,79,0.00,,,0.22,VWS V14.01,2013-01-13 20:21:00,
2013-01-13 21:26:00,56.7,48.5,29.85,South,182,11.0,25.0,74,0.00,,,0.22,VWS V14.01,2013-01-13 20:26:00,
2013-01-13 21:30:00,56.6,48.1,29.85,SSW,195,15.0,28.0,73,0.00,,,0.22,VWS V14.01,2013-01-13 20:30:00,
2013-01-13 21:31:00,56.7,48.2,29.85,SW,217,16.0,28.0,73,0.00,,,0.22,VWS V14.01,2013-01-13 20:31:00,
2013-01-13 21:36:00,56.7,47.8,29.85,SSW,194,13.0,27.0,72,0.00,,,0.22,VWS V14.01,2013-01-13 20:36:00,
2013-01-13 21:40:00,57.0,48.1,29.85,South,173,22.0,27.0,72,0.00,,,0.22,VWS V14.01,2013-01-13 20:40:00,
2013-01-13 21:41:00,56.9,47.6,29.85,SW,216,14.0,27.0,71,0.00,,,0.22,VWS V14.01,2013-01-13 20:41:00,
2013-01-13 21:46:00,57.2,47.9,29.85,South,186,15.0,28.0,71,0.00,,,0.22,VWS V14.01,2013-01-13 20:46:00,
2013-01-13 21:50:00,57.2,46.8,29.85,SW,234,13.0,28.0,68,0.00,,,0.22,VWS V14.01,2013-01-13 20:50:00,
2013-01-13 21:51:00,57.2,46.8,29.85,South,186,12.0,28.0,68,0.00,,,0.22,VWS V14.01,2013-01-13 20:51:00,
2013-01-13 21:56:00,57.3,47.6,29.85,SSW,207,13.0,27.0,70,0.00,,,0.22,VWS V14.01,2013-01-13 20:56:00,
2013-01-13 22:00:00,56.6,48.1,29.85,SSW,196,21.0,27.0,73,0.00,,,0.22,VWS V14.01,2013-01-13 21:00:00,
2013-01-13 22:01:00,56.8,47.9,29.85,SSW,203,16.0,27.0,72,0.00,,,0.22,VWS V14.01,2013-01-13 21:01:00,
2013-01-13 22:06:00,57.0,48.1,29.85,SSW,196,18.0,27.0,72,0.00,,,0.22,VWS V14.01,2013-01-13 21:06:00,
2013-01-13 22:10:00,57.0,48.4,29.85,SSW,203,10.0,27.0,73,0.00,,,0.22,VWS V14.01,2013-01-13 21:10:00,
2013-01-13 22:11:00,56.8,47.9,29.85,South,183,19.0,27.0,72,0.00,,,0.22,VWS V14.01,2013-01-13 21:11:00,
2013-01-13 22:16:00,57.3,49.5,29.85,SW,231,15.0,21.0,75,0.00,,,0.22,VWS V14.01,2013-01-13 21:16:00,
2013-01-13 22:20:00,57.8,51.0,29.85,South,174,22.0,27.0,78,0.00,,,0.22,VWS V14.01,2013-01-13 21:20:00,
2013-01-13 22:21:00,57.7,50.5,29.85,South,186,10.0,27.0,77,0.00,,,0.22,VWS V14.01,2013-01-13 21:21:00,
2013-01-13 22:26:00,57.8,51.3,29.85,South,184,16.0,22.0,79,0.00,,,0.22,VWS V14.01,2013-01-13 21:26:00,
2013-01-13 22:30:00,58.0,51.9,29.85,South,176,13.0,27.0,80,0.00,,,0.22,VWS V14.01,2013-01-13 21:30:00,
2013-01-13 22:31:00,58.0,51.9,29.85,SSW,197,9.0,26.0,80,0.00,,,0.22,VWS V14.01,2013-01-13 21:31:00,
2013-01-13 22:36:00,58.0,51.9,29.85,South,177,12.0,22.0,80,0.00,,,0.22,VWS V14.01,2013-01-13 21:36:00,
2013-01-13 22:40:00,58.1,52.3,29.85,South,189,30.0,30.0,81,0.00,,,0.22,VWS V14.01,2013-01-13 21:40:00,
2013-01-13 22:41:00,58.1,52.0,29.85,SSW,192,9.0,25.0,80,0.00,,,0.22,VWS V14.01,2013-01-13 21:41:00,
2013-01-13 22:46:00,58.2,52.4,29.85,SSW,198,16.0,30.0,81,0.00,,,0.22,VWS V14.01,2013-01-13 21:46:00,
2013-01-13 22:50:00,58.2,51.7,29.85,SSW,200,7.0,32.0,79,0.00,,,0.22,VWS V14.01,2013-01-13 21:50:00,
2013-01-13 22:51:00,58.1,51.6,29.85,South,177,10.0,32.0,79,0.00,,,0.22,VWS V14.01,2013-01-13 21:51:00,
2013-01-13 22:56:00,58.2,52.1,29.85,SSW,200,23.0,26.0,80,0.00,,,0.22,VWS V14.01,2013-01-13 21:56:00,
2013-01-13 23:00:00,58.1,51.6,29.86,SSW,212,15.0,27.0,79,0.00,,,0.22,VWS V14.01,2013-01-13 22:00:00,
2013-01-13 23:02:00,58.2,51.7,29.85,South,184,14.0,27.0,79,0.00,,,0.22,VWS V14.01,2013-01-13 22:02:00,
2013-01-13 23:07:00,58.1,51.3,29.85,SSW,204,18.0,28.0,78,0.00,,,0.22,VWS V14.01,2013-01-13 22:07:00,
2013-01-13 23:10:00,58.2,51.4,29.85,SSW,194,13.0,31.0,78,0.00,,,0.22,VWS V14.01,2013-01-13 22:10:00,
2013-01-13 23:12:00,58.2,51.0,29.85,SW,217,16.0,31.0,77,0.00,,,0.22,VWS V14.01,2013-01-13 22:12:00,
2013-01-13 23:17:00,58.2,51.4,29.85,South,182,13.0,22.0,78,0.00,,,0.22,VWS V14.01,2013-01-13 22:17:00,
2013-01-13 23:20:00,58.2,51.4,29.85,South,188,11.0,25.0,78,0.00,,,0.22,VWS V14.01,2013-01-13 22:20:00,
2013-01-13 23:22:00,58.2,51.4,29.86,South,181,15.0,25.0,78,0.00,,,0.22,VWS V14.01,2013-01-13 22:22:00,
2013-01-13 23:27:00,58.2,51.4,29.85,SW,215,16.0,28.0,78,0.00,,,0.22,VWS V14.01,2013-01-13 22:27:00,
2013-01-13 23:30:00,58.1,51.3,29.85,SSW,206,19.0,28.0,78,0.00,,,0.22,VWS V14.01,2013-01-13 22:30:00,
2013-01-13 23:32:00,58.2,51.4,29.85,WSW,237,18.0,28.0,78,0.00,,,0.22,VWS V14.01,2013-01-13 22:32:00,
2013-01-13 23:37:00,58.1,50.9,29.85,South,182,23.0,29.0,77,0.00,,,0.22,VWS V14.01,2013-01-13 22:37:00,
2013-01-13 23:40:00,58.2,51.0,29.85,SSW,199,14.0,30.0,77,0.00,,,0.22,VWS V14.01,2013-01-13 22:40:00,
2013-01-13 23:42:00,58.3,51.1,29.85,SSW,194,19.0,30.0,77,0.00,,,0.22,VWS V14.01,2013-01-13 22:42:00,
2013-01-13 23:47:00,58.1,50.9,29.85,SSW,196,18.0,28.0,77,0.00,,,0.22,VWS V14.01,2013-01-13 22:47:00,
2013-01-13 23:50:00,58.2,50.3,29.85,SSW,212,14.0,28.0,75,0.00,,,0.22,VWS V14.01,2013-01-13 22:50:00,
2013-01-13 23:52:00,58.2,50.7,29.84,SW,216,19.0,28.0,76,0.00,,,0.22,VWS V14.01,2013-01-13 22:52:00,
2013-01-13 23:57:00,58.2,50.3,29.85,SW,223,17.0,29.0,75,0.00,,,0.22,VWS V14.01,2013-01-13 22:57:00,